Regional Weather Roundup
Issued by NWS

Home | Current Version | Previous Version | Graphics & Text | Print | Product List | Glossary On
Versions: 1 2 3 4 5 6 7 8 9 10 11 12 13 14 15 16 17 18 19 20 21 22 23 24 25 26 27 28 29 30 31 32 33 34 35 36 37 38 39 40 41 42 43 44 45 46 47 48 49 50
177
ASUS44 KJAN 012303
RWRMS

MISSISSIPPI HOURLY WEATHER ROUNDUP
NATIONAL WEATHER SERVICE JACKSON MS
600 PM CDT WED OCT 01 2014

NOTE: "FAIR: INDICATES FEW OR NO CLOUDS BELOW 12,000 FEET WITH NO
SIGNIFICANT WEATHER AND/OR OBSTRUCTIONS TO VISIBILITY.

MSZ001>002-007>008-010>013-018>021-025>028-034>036-020000-
NORTHWEST MISSISSIPPI

CITY           SKY/WX    TMP DP  RH WIND       PRES   REMARKS
CLARKSDALE     FAIR      86  64  48 SE8       29.86S
CLEVELAND      MOCLDY    87  65  48 SE12      29.84S
GREENWOOD      CLEAR     87  64  46 SE8       29.87S
GREENVILLE     PTCLDY    89  63  41 S14       29.83S HX  90
GRENADA        FAIR      84  63  48 S5        29.89R
OXFORD         FAIR      82  64  54 SE3       29.91S
TUNICA         PTCLDY    82  64  54 E10       29.86F
$$

MSZ003>006-009-014>017-022>024-029>033-037>039-020000-
NORTHEAST MISSISSIPPI

CITY           SKY/WX    TMP DP  RH WIND       PRES   REMARKS
COLUMBUS AFB   CLEAR     85  59  40 S5        29.91R
CORINTH        FAIR      84  55  37 S6        29.90S
GOLDN TRIANGLE PTCLDY    84  59  42 E9        29.90R
STARKVILLE     FAIR      84  59  42 SE5       29.90S
TUPELO         CLEAR     84  58  40 S5        29.90S
$$

MSZ040-058-020000-
CENTRAL MISSISSIPPI

CITY           SKY/WX    TMP DP  RH WIND       PRES   REMARKS
JACKSON INTL   PTCLDY    86  66  51 SE6       29.88S
JACKSON HAWKNS CLEAR     86  66  51 SE12      29.88S
MERIDIAN KEY   CLEAR     85  61  44 S7        29.91R
MERIDIAN NAS   PTCLDY    86  60  41 S5        29.91S
RAYMOND        FAIR      86  81  84 S10       29.87S HX 102
VICKSBURG      CLEAR     88  67  49 S12       29.85S HX  91
$$

MSZ059>079-020000-
SOUTH MISSISSIPPI

CITY           SKY/WX    TMP DP  RH WIND       PRES   REMARKS
BROOKHAVEN     MOCLDY    82  72  69 E6        29.91R
COLUMBIA       FAIR      82  72  69 S6        29.88F
HATTIESBURG    CLEAR     84  69  60 S8        29.91S
MCCOMB         PTCLDY    81  71  71 SE9       29.89S
NATCHEZ        PTCLDY    82  73  74 SE9       29.87S
PINE BELT      PTCLDY    82  64  54 SE7       29.93R
$$

MSZ080>082-020000-
COASTAL MISSISSIPPI

CITY           SKY/WX    TMP DP  RH WIND       PRES   REMARKS
BAY ST LOUIS   MOCLDY    81  70  69 SE6       29.91S
BILOXI         MOCLDY    80  74  81 SE7       29.92R
PASCAGOULA     MOCLDY    79  73  82 SE7       29.92S
GULFPORT       MOCLDY    80  74  81 SE12      29.91S
$$



USA.gov is the U.S. government's official web portal to all federal, state and local government web resources and services.